Location: Unspecified
(49.2170°N, 0.0000°E)
Time: 11:18:28
(UTC+00:00)

Transit 4A - Pass Details

Date: 24 June 2019
Orbit: 862 x 982 km, 66.8° (Epoch: 15 July)

Event Time Altitude Azimuth Distance (km) Brightness Sun altitude
Rises 14:44:44 0° 323° (NW) 3,697 11.1 49.1°
Reaches altitude 10° 14:47:34 10° 332° (NNW) 2,744 10.5 48.7°
Maximum altitude 14:53:28 37° 39° (NE) 1,476 9.0 47.8°
Drops below altitude 10° 14:59:16 10° 105° (ESE) 2,689 10.1 46.9°
Sets 15:02:00 0° 114° (ESE) 3,615 10.7 46.5°
